This is the latest recevied weather packets stored in our database for station/object JR5YHL-13. If no packets are shown the sender has not sent any weather packets the latest 1 day(s).
| Time | Temp. | Humidity | Pressure | Rain* | Wind** | Luminosity | Snow |
|---|---|---|---|---|---|---|---|
| 1778081143 | 15.56° C | 99% | 1017.5 hPa | 0 mm | - | - | - |
| 1778079948 | 16.11° C | 99% | 1017.6 hPa | 0 mm | - | - | - |
| 1778078155 | 16.11° C | 99% | 1018.1 hPa | 0 mm | - | - | - |
| 1778076362 | 16.67° C | 99% | 1018.2 hPa | 0 mm | - | - | - |
| 1778075167 | 16.67° C | 99% | 1018.4 hPa | 0 mm | - | - | - |
| 1778074569 | 16.67° C | 99% | 1018.5 hPa | 0 mm | - | - | - |
| 1778073374 | 16.67° C | 99% | 1018.3 hPa | 0 mm | - | - | - |
| 1778071581 | 17.22° C | 99% | 1017.9 hPa | 0 mm | - | - | - |
| 1778070386 | 17.22° C | 99% | 1017.8 hPa | 0 mm | - | - | - |
| 1778068593 | 17.78° C | 99% | 1017.7 hPa | 0 mm | - | - | - |
| 1778066800 | 18.33° C | 97% | 1017.1 hPa | 0 mm | - | - | - |
| 1778066202 | 18.89° C | 94% | 1017 hPa | 0 mm | - | - | - |
| 1778065605 | 18.89° C | 94% | 1016.9 hPa | 0 mm | - | - | - |
| 1778065007 | 18.89° C | 89% | 1016.7 hPa | 0 mm | - | - | - |
| 1778063812 | 20° C | 84% | 1016.8 hPa | 0 mm | - | - | - |
| 1778063214 | 20° C | 82% | 1016.8 hPa | 0 mm | - | - | - |
| 1778061421 | 21.11° C | 75% | 1016.6 hPa | 0 mm | - | - | - |
| 1778059628 | 21.67° C | 70% | 1016.5 hPa | 0 mm | - | - | - |
| 1778058433 | 21.67° C | 67% | 1016.4 hPa | 0 mm | - | - | - |
| 1778057835 | 22.22° C | 67% | 1016.6 hPa | 0 mm | - | - | - |
| 1778057237 | 22.22° C | 66% | 1016.5 hPa | 0 mm | - | - | - |
| 1778056042 | 22.22° C | 66% | 1016.3 hPa | 0 mm | - | - | - |
| 1778055444 | 22.22° C | 66% | 1016.3 hPa | 0 mm | - | - | - |
| 1778054847 | 22.78° C | 63% | 1016.4 hPa | 0 mm | - | - | - |
| 1778054249 | 22.78° C | 60% | 1016.2 hPa | 0 mm | - | - | - |
* Rain latest hour (hover to see other rain measurements)
** Current wind speed in m/s (hover to see current wind gust speed)